Weather History for Grand Marais, MN

Change the Weather History Date:

Sunday, July 14, 2013

  Actual Average (KCKC) Record (KCKC)
Temperature  
Mean Temperature 58 °F -  
Max Temperature 66 °F 71 °F 87 °F (2002)
Min Temperature 53 °F 51 °F 39 °F (2011)
Degree Days  
Heating Degree Days 6    
Growing Degree Days 8 (Base 50)    
Moisture  
Dew Point 55 °F    
Average Humidity 92    
Maximum Humidity 97    
Minimum Humidity 86    
Precipitation  
Precipitation 0.13 in - - ()
Sea Level Pressure  
Sea Level Pressure 30.14 in    
Wind  
Wind Speed 1 mph (ENE)    
Max Wind Speed 6 mph    
Max Gust Speed -    
Averages and records for this station are not official NWS values.
T = Trace of Precipitation, MM = Missing Value Source: NWS Daily Summary

Daily Weather History Graph

Daily Weather History Graph

Search for Another Location

Airport:

Trip Planner

Search our weather history database for the weather conditions in past years. The results will help you decide how hot, cold, wet, or windy it might be!

Date:

Astronomy

Jul. 14, 2013 Rise Set
Actual Time 5:17 AM CDT 8:56 PM CDT
Civil Twilight 4:38 AM CDT 9:35 PM CDT
Nautical Twilight 3:46 AM CDT 10:27 PM CDT
Astronomical Twilight 2:32 AM CDT 11:39 PM CDT
Moon 12:07 PM CDT (7/14) 11:34 PM CDT (7/14)
Length of Visible Light 16h 56m
Length of Day
15h 38m
Waxing Crescent, 35% of the Moon is Illuminated
Jul 14
Waxing Crescent
Jul 15
First Quarter
Jul 22
Full
Jul 29
Last Quarter
Aug 6
New

Hourly Weather History & Observations

Time (CDT) Temp. Dew Point Humidity Pressure Visibility Wind Dir Wind Speed Gust Speed Precip Events Conditions
12:56 AM 57.0 °F 55.0 °F 93% 30.10 in - NE 3.5 mph - N/A   Unknown
1:56 AM 54.0 °F 53.1 °F 97% 30.12 in - Calm Calm - N/A   Unknown
2:56 AM 54.0 °F 52.0 °F 93% 30.10 in - Calm Calm - N/A   Unknown
3:56 AM 54.0 °F 52.0 °F 93% 30.12 in - Calm Calm - N/A   Unknown
4:56 AM 53.1 °F 52.0 °F 96% 30.13 in - Calm Calm - N/A   Unknown
5:56 AM 55.9 °F 55.0 °F 97% 30.12 in - Calm Calm - N/A   Unknown
6:56 AM 55.9 °F 53.1 °F 90% 30.12 in - Calm Calm - N/A   Unknown
7:56 AM 62.1 °F 57.9 °F 86% 30.11 in - Calm Calm - N/A   Unknown
8:56 AM 61.0 °F 57.0 °F 87% 30.12 in - Calm Calm - N/A   Unknown
9:56 AM 61.0 °F 57.9 °F 90% 30.12 in - Calm Calm - N/A   Unknown
10:56 AM 60.1 °F 55.9 °F 86% 30.14 in - Calm Calm - N/A   Unknown
11:56 AM 61.0 °F 57.0 °F 87% 30.14 in - Calm Calm - N/A   Unknown
12:56 PM 57.9 °F 55.0 °F 90% 30.15 in - Calm Calm - N/A   Unknown
1:56 PM 61.0 °F 57.0 °F 87% 30.16 in - Calm Calm - N/A   Unknown
2:56 PM 64.0 °F 60.1 °F 87% 30.16 in - Calm Calm - N/A   Unknown
3:56 PM 59.0 °F 55.9 °F 90% 30.16 in - Calm Calm - N/A   Unknown
4:56 PM 57.9 °F 54.0 °F 87% 30.16 in - Calm Calm - N/A   Unknown
5:56 PM 55.0 °F 54.0 °F 96% 30.16 in - Calm Calm - 0.03 in   Unknown
6:56 PM 57.9 °F 55.9 °F 93% 30.17 in - Calm Calm - 0.09 in   Unknown
7:56 PM 55.0 °F 54.0 °F 96% 30.17 in - Calm Calm - 0.01 in   Unknown
8:56 PM 57.9 °F 57.0 °F 97% 30.17 in - Calm Calm - N/A   Unknown
9:56 PM 59.0 °F 57.9 °F 96% 30.17 in - Calm Calm - N/A   Unknown
10:56 PM 61.0 °F 59.0 °F 93% 30.17 in - Calm Calm - N/A   Unknown
11:56 PM 54.0 °F 53.1 °F 97% 30.21 in - East 5.8 mph - N/A   Unknown